[[{"header":{"parameterUnit":"m.s-1","parameterCategory":2,"la1":30.2992,"la2":30.254,"lo1":-89.0895,"lo2":-89.0443,"dy":0.0025,"dx":0.0025,"nx":19,"ny":19,"refTime":"2026-04-17T21:00:00:Z","depth":"0","parameterNumber":2,"parameterNumberName":"U-component_of_CURRENTS"},"data":[0,0,0,0.2325,0.2325,0.2342,0.2342,0.2406,0.2407,0,0,0,0,0,0,0,0,0,0,0,0.231,0.231,0.2324,0.2325,0.2342,0.2342,0.2406,0.2407,0,0,0,0,0,0,0,0,0,0,0,0.231,0.231,0.231,0.2325,0.2342,0.2342,0.2406,0.2381,0,0,0,0,0,0,0,0,0,0,0.2358,0.2339,0.231,0.231,0.2325,0.2342,0.2342,0.2379,0.2382,0.2412,0,0.2412,0,0.242,0.2413,0.2413,0,0,0,0.2318,0.2336,0.2346,0.231,0.2326,0.2342,0.2333,0.238,0.2384,0.2417,0.2413,0.2415,0.2421,0.2413,0.2414,0.2487,0.2487,0,0,0.2318,0.2311,0.2343,0.2348,0.2329,0.2332,0.2333,0.2382,0.2384,0.2413,0.2417,0.2422,0.2414,0.2414,0.2487,0.2487,0,0,0,0.2319,0.231,0.2317,0.2346,0.235,0.2333,0.2334,0.2381,0.2385,0.2418,0.2422,0.2414,0.2415,0.2487,0.2487,0.2483,0,0,0,0.2318,0.2312,0.2317,0.2312,0.2349,0.2361,0.2332,0.2381,0.2387,0.2422,0.2414,0.2416,0.2486,0.2487,0.2483,0.2476,0,0,0,0.2309,0.2311,0.2313,0.2312,0.2324,0.236,0.2365,0.2382,0.2391,0.2413,0.2416,0.2486,0.2487,0.2483,0.2476,0.2484,0,0,0,0.2302,0.2295,0.2312,0.2311,0.2324,0.2338,0.2365,0.239,0.2408,0.2415,0.2486,0.2487,0.2483,0.2476,0.2483,0.2407,0.2402,0,0,0.2288,0.2293,0.2294,0.231,0.2314,0.2335,0.236,0.2405,0.2424,0.2472,0.2473,0.2483,0.2476,0.2484,0.2428,0.2422,0,0,0,0.2286,0.2282,0.2285,0.2297,0.2316,0.2342,0.2387,0.2413,0.2459,0.2438,0.2492,0.2487,0.2492,0.2446,0.2441,0.2313,0.2488,0.2488,0.2488,0.2248,0.2267,0.226,0.2286,0.2305,0.2361,0.239,0.2437,0.2463,0.2489,0.2491,0.2502,0.2453,0.2449,0.2317,0.2501,0.2501,0.2501,0.2501,0.2216,0.2208,0.2241,0.2239,0.2286,0.2317,0.2403,0.244,0.2498,0.2506,0.2511,0.2452,0.2443,0.2305,0.2501,0.2501,0.2501,0.2501,0.2501,0.2177,0.2174,0.218,0.2196,0.2227,0.2294,0.2345,0.242,0.248,0.2499,0.2452,0.2451,0.2324,0.2502,0.2502,0.2502,0.2502,0.2502,0.2502,0.2131,0.2137,0.2124,0.215,0.2159,0.2212,0.2318,0.2367,0.2416,0.244,0.2439,0.2303,0.2502,0.2496,0.2502,0.2502,0.2502,0.2502,0.2502,0.2077,0.2085,0.2059,0.2058,0.208,0.207,0.2204,0.2262,0.2332,0.2331,0.2211,0.2412,0.2406,0.2408,0.24,0.2381,0.2381,0.2381,0.2381,0.2038,0.2043,0.1985,0.1959,0.1965,0.1995,0.1965,0.2036,0.2079,0.205,0.2089,0.2047,0.2057,0.2029,0.204,0.2024,0.191,0.1909,0.1909,0.2005,0.1991,0.1926,0.1894,0.1888,0.1878,0.178,0.172,0.1795,0.1879,0.1924,0.1944,0.1874,0.1901,0.1854,0.188,0.1853,0,0]},{"header":{"parameterUnit":"m.s-1","parameterCategory":2,"la1":30.2992,"la2":30.254,"lo1":-89.0895,"lo2":-89.0443,"dy":0.0025,"dx":0.0025,"nx":19,"ny":19,"refTime":"2026-04-17T21:00:00:Z","depth":"0","parameterNumber":3,"parameterNumberName":"V-component_of_CURRENTS"},"data":[0,0,0,0.0448,0.0448,0.0474,0.0474,0.0486,0.0486,0,0,0,0,0,0,0,0,0,0,0,0.0443,0.0443,0.0448,0.0448,0.0474,0.0474,0.0486,0.0486,0,0,0,0,0,0,0,0,0,0,0,0.0443,0.0443,0.0443,0.0448,0.0474,0.0474,0.0486,0.0471,0,0,0,0,0,0,0,0,0,0,0.0449,0.0441,0.0443,0.0444,0.0448,0.0474,0.0474,0.0471,0.0472,0.0468,0,0.0478,0,0.048,0.0486,0.0486,0,0,0,0.0447,0.044,0.0453,0.0444,0.0449,0.0474,0.0462,0.0472,0.0473,0.047,0.0478,0.0478,0.048,0.0486,0.0486,0.0525,0.0525,0,0,0.0446,0.0439,0.0452,0.0454,0.0462,0.0461,0.0463,0.0473,0.0473,0.0478,0.0479,0.0481,0.0486,0.0486,0.0524,0.0525,0,0,0,0.0442,0.0438,0.0452,0.0454,0.046,0.0462,0.0464,0.0472,0.0479,0.0479,0.0481,0.0486,0.0486,0.0524,0.0524,0.0584,0,0,0,0.0441,0.0437,0.0451,0.0447,0.046,0.0467,0.0463,0.0479,0.048,0.0481,0.0486,0.0486,0.0523,0.0524,0.0581,0.063,0,0,0,0.044,0.0436,0.0443,0.0446,0.0458,0.0467,0.0474,0.0479,0.0481,0.0486,0.0486,0.0523,0.0524,0.0579,0.0625,0.0663,0,0,0,0.0427,0.045,0.0443,0.0473,0.0458,0.0501,0.0474,0.0497,0.0507,0.0486,0.0523,0.0524,0.0578,0.0622,0.066,0.0738,0.0758,0,0,0.0452,0.0453,0.0474,0.0468,0.0521,0.0497,0.055,0.0544,0.0517,0.0517,0.0518,0.0582,0.0625,0.0662,0.079,0.0809,0,0,0,0.0479,0.0497,0.0512,0.0539,0.0559,0.059,0.0581,0.0578,0.058,0.0526,0.0584,0.061,0.0631,0.0672,0.0686,0.0685,0.0529,0.0529,0.0528,0.0502,0.0525,0.0572,0.0606,0.0632,0.0653,0.0675,0.0667,0.0629,0.0638,0.0658,0.0731,0.0775,0.0787,0.0785,0.0646,0.0647,0.0647,0.0647,0.0557,0.0593,0.0623,0.0676,0.0707,0.0747,0.077,0.0754,0.0775,0.0723,0.074,0.0733,0.0807,0.0798,0.0651,0.065,0.065,0.0649,0.0649,0.0581,0.0604,0.0636,0.0714,0.0782,0.0818,0.0905,0.0886,0.0844,0.0864,0.0891,0.089,0.0882,0.0861,0.0862,0.0862,0.0863,0.0863,0.0863,0.0591,0.0628,0.0688,0.0765,0.0829,0.092,0.0987,0.1023,0.1025,0.0984,0.0983,0.0921,0.0797,0.0788,0.0869,0.0868,0.0867,0.0867,0.0866,0.0632,0.0645,0.0736,0.0802,0.0956,0.109,0.1143,0.1231,0.1226,0.1236,0.112,0.104,0.1032,0.102,0.1017,0.1152,0.1152,0.1152,0.1152,0.0654,0.0668,0.0793,0.0908,0.1056,0.1175,0.136,0.1415,0.1348,0.1301,0.1235,0.1198,0.1186,0.1183,0.1167,0.1165,0.1334,0.1334,0.1334,0.069,0.0723,0.0817,0.093,0.1105,0.1281,0.1463,0.1555,0.1442,0.1337,0.1221,0.1213,0.1146,0.1128,0.1108,0.1086,0.1076,0,0]}],[{"header":{"parameterUnit":"m.s-1","parameterCategory":2,"la1":30.2992,"la2":30.254,"lo1":-89.0895,"lo2":-89.0443,"dy":0.0025,"dx":0.0025,"nx":19,"ny":19,"refTime":"2026-04-17T21:00:00:Z","depth":"2","parameterNumber":2,"parameterNumberName":"U-component_of_CURRENTS"},"data":[0,0,0,0.2046,0.2047,0.2078,0.2078,0.2136,0.2137,0,0,0,0,0,0,0,0,0,0,0,0.2031,0.2031,0.2046,0.2047,0.2078,0.2078,0.2136,0.2137,0,0,0,0,0,0,0,0,0,0,0,0.203,0.2031,0.2031,0.2047,0.2077,0.2078,0.2136,0.2106,0,0,0,0,0,0,0,0,0,0,0.2074,0.206,0.2031,0.2031,0.2047,0.2077,0.2078,0.2105,0.2108,0.2129,0,0.2135,0,0.2143,0.2142,0.2142,0,0,0,0.2041,0.2057,0.2066,0.2031,0.2048,0.2077,0.2062,0.2107,0.2111,0.2134,0.2136,0.2138,0.2144,0.2142,0.2142,0.2209,0.221,0,0,0.204,0.2036,0.2064,0.2069,0.2058,0.2061,0.2063,0.2109,0.2114,0.2136,0.214,0.2145,0.2142,0.2143,0.2209,0.2209,0,0,0,0.2039,0.2034,0.2043,0.2066,0.2074,0.2062,0.2064,0.2111,0.2114,0.214,0.2146,0.2143,0.2144,0.2209,0.2209,0.2222,0,0,0,0.2037,0.2034,0.2042,0.204,0.2073,0.2091,0.2066,0.2111,0.2117,0.2145,0.2143,0.2144,0.2209,0.2209,0.2221,0.2214,0,0,0,0.2029,0.2034,0.2038,0.2039,0.2056,0.2091,0.2096,0.2112,0.2121,0.2142,0.2145,0.2209,0.2209,0.2221,0.2214,0.2229,0,0,0,0.2023,0.2022,0.2038,0.2042,0.2056,0.2072,0.2095,0.2125,0.2144,0.2143,0.2209,0.2209,0.222,0.2213,0.2228,0.2134,0.213,0,0,0.2014,0.2021,0.2023,0.2038,0.2046,0.2067,0.2097,0.2143,0.2157,0.2194,0.2195,0.2222,0.2213,0.2228,0.2161,0.2155,0,0,0,0.2016,0.2014,0.2018,0.2033,0.2052,0.2081,0.2127,0.2153,0.22,0.2172,0.2227,0.2221,0.2231,0.2173,0.2169,0.2211,0.2211,0.2211,0.2211,0.1991,0.2007,0.2004,0.2028,0.2048,0.2106,0.2137,0.2183,0.2206,0.2236,0.2237,0.2261,0.22,0.2196,0.2249,0.2249,0.2249,0.2249,0.2249,0.1966,0.196,0.1992,0.1994,0.2041,0.2078,0.2159,0.2198,0.2257,0.226,0.2269,0.2195,0.2192,0.225,0.225,0.225,0.2249,0.2249,0.2249,0.1935,0.1932,0.1943,0.1963,0.2,0.2066,0.2119,0.2193,0.2251,0.2272,0.2215,0.2214,0.2263,0.2284,0.2284,0.2284,0.2284,0.2284,0.2284,0.1895,0.1903,0.1898,0.1929,0.1943,0.1999,0.2104,0.215,0.2195,0.2213,0.2212,0.2272,0.2271,0.2265,0.2285,0.2284,0.2284,0.2284,0.2284,0.1848,0.1859,0.1843,0.1849,0.1877,0.1868,0.1995,0.2045,0.2113,0.2106,0.218,0.2182,0.2167,0.2169,0.216,0.2152,0.2152,0.2152,0.2152,0.1815,0.1821,0.178,0.1761,0.177,0.1798,0.1759,0.1795,0.191,0.1934,0.1943,0.1903,0.1913,0.1882,0.1891,0.1875,0.1793,0.1792,0.1792,0.1787,0.1777,0.1726,0.1702,0.1699,0.1686,0.1577,0.1458,0.1544,0.1776,0.1869,0.213,0.2096,0.2103,0.2075,0.2081,0.2065,0,0]},{"header":{"parameterUnit":"m.s-1","parameterCategory":2,"la1":30.2992,"la2":30.254,"lo1":-89.0895,"lo2":-89.0443,"dy":0.0025,"dx":0.0025,"nx":19,"ny":19,"refTime":"2026-04-17T21:00:00:Z","depth":"2","parameterNumber":3,"parameterNumberName":"V-component_of_CURRENTS"},"data":[0,0,0,0.0319,0.0319,0.0344,0.0344,0.0355,0.0355,0,0,0,0,0,0,0,0,0,0,0,0.0315,0.0315,0.0319,0.0319,0.0344,0.0344,0.0355,0.0355,0,0,0,0,0,0,0,0,0,0,0,0.0315,0.0315,0.0316,0.0319,0.0344,0.0344,0.0355,0.0341,0,0,0,0,0,0,0,0,0,0,0.032,0.0314,0.0315,0.0316,0.0319,0.0344,0.0344,0.0341,0.0342,0.0338,0,0.0347,0,0.0349,0.0355,0.0355,0,0,0,0.0319,0.0313,0.0325,0.0316,0.032,0.0344,0.0333,0.0342,0.0343,0.0339,0.0348,0.0348,0.0349,0.0355,0.0355,0.0393,0.0394,0,0,0.0317,0.0313,0.0324,0.0326,0.0333,0.0332,0.0333,0.0343,0.0343,0.0348,0.0348,0.0349,0.0355,0.0355,0.0393,0.0394,0,0,0,0.0314,0.0312,0.0324,0.0325,0.033,0.0332,0.0334,0.0343,0.0349,0.0348,0.0349,0.0355,0.0355,0.0393,0.0393,0.0456,0,0,0,0.0313,0.031,0.0323,0.0319,0.033,0.0338,0.0334,0.0348,0.0349,0.0349,0.0355,0.0355,0.0392,0.0393,0.0453,0.0498,0,0,0,0.0313,0.0309,0.0316,0.0319,0.033,0.0338,0.0344,0.0349,0.035,0.0355,0.0355,0.0392,0.0393,0.0451,0.0494,0.0528,0,0,0,0.0302,0.0325,0.0316,0.0346,0.033,0.0371,0.0344,0.0367,0.0376,0.0355,0.0392,0.0393,0.045,0.0491,0.0525,0.0574,0.0591,0,0,0.0327,0.0327,0.0349,0.0342,0.0393,0.0367,0.042,0.0415,0.0387,0.0386,0.0388,0.0454,0.0493,0.0527,0.0627,0.0643,0,0,0,0.0355,0.0373,0.0387,0.0413,0.0431,0.0461,0.0451,0.0448,0.0452,0.0396,0.0455,0.0479,0.0498,0.0521,0.0534,0.0398,0.0397,0.0397,0.0397,0.0381,0.0402,0.0449,0.0481,0.0506,0.0525,0.0546,0.0538,0.0501,0.0511,0.0529,0.0601,0.0627,0.0637,0.0519,0.052,0.052,0.052,0.052,0.0437,0.0472,0.0501,0.0553,0.0582,0.0622,0.0642,0.0626,0.0645,0.0596,0.061,0.0586,0.0655,0.0525,0.0524,0.0524,0.0523,0.0523,0.0522,0.0463,0.0485,0.0517,0.0593,0.0659,0.0693,0.0771,0.0754,0.0714,0.0732,0.0738,0.0737,0.0645,0.073,0.0731,0.0731,0.0731,0.0732,0.0732,0.0475,0.0511,0.0569,0.0644,0.0705,0.079,0.085,0.0877,0.087,0.0827,0.0827,0.0672,0.0665,0.0657,0.0738,0.0736,0.0736,0.0735,0.0735,0.0514,0.0528,0.0614,0.0677,0.0822,0.0939,0.0987,0.1048,0.1041,0.104,0.0874,0.0869,0.0855,0.0845,0.084,0.0964,0.0964,0.0964,0.0964,0.0535,0.0549,0.0665,0.0772,0.0908,0.1013,0.1157,0.1173,0.1099,0.1019,0.1016,0.0974,0.0964,0.0952,0.0939,0.0934,0.1082,0.1082,0.1082,0.0568,0.0598,0.0684,0.079,0.0949,0.11,0.1232,0.1231,0.1094,0.1083,0.0999,0.0979,0.0906,0.0895,0.0864,0.0848,0.0835,0,0]}],[{"header":{"parameterUnit":"m.s-1","parameterCategory":2,"la1":30.2992,"la2":30.254,"lo1":-89.0895,"lo2":-89.0443,"dy":0.0025,"dx":0.0025,"nx":19,"ny":19,"refTime":"2026-04-17T21:00:00:Z","depth":"4","parameterNumber":2,"parameterNumberName":"U-component_of_CURRENTS"},"data":[0,0,0,0.1353,0.1355,0.1456,0.1456,0.1543,0.1544,0,0,0,0,0,0,0,0,0,0,0,0.1324,0.1325,0.1353,0.1355,0.1456,0.1456,0.1543,0.1544,0,0,0,0,0,0,0,0,0,0,0,0.1323,0.1324,0.1326,0.1356,0.1456,0.1456,0.1543,0.1477,0,0,0,0,0,0,0,0,0,0,0.1384,0.1371,0.1324,0.1326,0.1356,0.1456,0.1456,0.1474,0.1481,0.1487,0,0.1513,0,0.1529,0.1549,0.1549,0,0,0,0.1353,0.1365,0.1386,0.1326,0.1357,0.1456,0.141,0.1478,0.1486,0.1495,0.1514,0.1518,0.153,0.155,0.155,0.1634,0.1635,0,0,0.1348,0.1346,0.1381,0.1391,0.1397,0.1407,0.1413,0.1484,0.15,0.1515,0.152,0.1532,0.155,0.1551,0.1634,0.1635,0,0,0,0.1333,0.1342,0.1362,0.1387,0.1408,0.141,0.1417,0.1497,0.1503,0.1521,0.1533,0.1551,0.1552,0.1634,0.1634,0.1672,0,0,0,0.133,0.1334,0.136,0.136,0.1407,0.1461,0.1429,0.1498,0.1506,0.1532,0.1551,0.1552,0.1633,0.1634,0.167,0.1668,0,0,0,0.1317,0.1332,0.1346,0.136,0.1403,0.1461,0.1471,0.15,0.1513,0.155,0.1552,0.1633,0.1634,0.1668,0.1666,0.1694,0,0,0,0.1306,0.1324,0.1347,0.1375,0.1402,0.1446,0.147,0.1527,0.1561,0.1551,0.1633,0.1634,0.1668,0.1665,0.1692,0.1472,0,0,0,0.1313,0.1326,0.1339,0.136,0.1395,0.1432,0.1492,0.1558,0.1573,0.1606,0.1608,0.1671,0.1666,0.1693,0.1524,0,0,0,0,0.1329,0.134,0.1353,0.1388,0.1424,0.148,0.1544,0.1578,0.1644,0.1598,0.1677,0.1673,0.1689,0.1556,0.1638,0.1638,0.1638,0.1638,0.1638,0.1323,0.1344,0.1366,0.1404,0.1444,0.153,0.158,0.1638,0.166,0.1703,0.171,0.1761,0.1623,0.1725,0.1725,0.1726,0.1726,0.1726,0.1726,0.1313,0.1317,0.1371,0.1402,0.1471,0.1537,0.1632,0.1679,0.1755,0.1752,0.1767,0.1612,0.173,0.1729,0.1728,0.1728,0.1728,0.1727,0.1727,0.1284,0.1287,0.1329,0.1389,0.1466,0.1556,0.1622,0.1711,0.1773,0.1803,0.167,0.1784,0.1774,0.1825,0.1826,0.1826,0.1826,0.1826,0.1826,0.1229,0.1266,0.1299,0.1372,0.1419,0.1503,0.1631,0.167,0.1754,0.1676,0.182,0.1794,0.1791,0.178,0.1828,0.1828,0.1827,0.1827,0.1827,0.1172,0.1211,0.1239,0.1283,0.1367,0.1404,0.1548,0.1563,0.1595,0.1565,0.1607,0.1617,0.158,0.1582,0.1562,0.1548,0.1545,0.1542,0,0.1133,0.1153,0.1182,0.121,0.1238,0.1331,0.1308,0.1372,0.1438,0.1391,0.1613,0.1661,0.1666,0.1625,0.1623,0.1599,0,0,0,0.1101,0.1115,0.1111,0.1146,0.1161,0.1188,0.1291,0.1259,0.1427,0.1377,0.1476,0.1493,0.1697,0.1834,0.1802,0.1798,0.1778,0,0]},{"header":{"parameterUnit":"m.s-1","parameterCategory":2,"la1":30.2992,"la2":30.254,"lo1":-89.0895,"lo2":-89.0443,"dy":0.0025,"dx":0.0025,"nx":19,"ny":19,"refTime":"2026-04-17T21:00:00:Z","depth":"4","parameterNumber":3,"parameterNumberName":"V-component_of_CURRENTS"},"data":[0,0,0,0.0235,0.0235,0.0262,0.0262,0.0283,0.0283,0,0,0,0,0,0,0,0,0,0,0,0.0231,0.0231,0.0235,0.0235,0.0262,0.0262,0.0283,0.0283,0,0,0,0,0,0,0,0,0,0,0,0.023,0.0231,0.0231,0.0235,0.0262,0.0262,0.0283,0.0266,0,0,0,0,0,0,0,0,0,0,0.0242,0.0236,0.0231,0.0231,0.0236,0.0262,0.0262,0.0265,0.0267,0.0266,0,0.0275,0,0.0276,0.0284,0.0284,0,0,0,0.0237,0.0235,0.0244,0.0231,0.0236,0.0262,0.0251,0.0267,0.0268,0.0268,0.0275,0.0276,0.0276,0.0284,0.0284,0.0326,0.0327,0,0,0.0235,0.0232,0.0243,0.0246,0.0248,0.025,0.0251,0.0268,0.027,0.0275,0.0276,0.0277,0.0284,0.0284,0.0326,0.0326,0,0,0,0.023,0.0231,0.024,0.0245,0.0249,0.025,0.0252,0.027,0.0274,0.0276,0.0277,0.0284,0.0284,0.0325,0.0326,0.0381,0,0,0,0.0229,0.0228,0.024,0.0238,0.0249,0.0261,0.0254,0.0273,0.0275,0.0277,0.0284,0.0284,0.0325,0.0326,0.0379,0.0417,0,0,0,0.0228,0.0228,0.0233,0.0238,0.0248,0.0261,0.0266,0.0273,0.0275,0.0284,0.0284,0.0325,0.0326,0.0377,0.0412,0.0438,0,0,0,0.0221,0.024,0.0233,0.0261,0.0248,0.0287,0.0266,0.029,0.0302,0.0284,0.0325,0.0326,0.0376,0.041,0.0435,0.0406,0,0,0,0.0243,0.0243,0.0262,0.0256,0.0302,0.0283,0.0333,0.0334,0.0313,0.0318,0.0319,0.0379,0.0412,0.0437,0.0457,0,0,0,0,0.0267,0.0283,0.0296,0.032,0.0338,0.0368,0.0365,0.0365,0.0374,0.0323,0.0382,0.0401,0.0415,0.039,0.033,0.033,0.033,0.033,0.033,0.0291,0.0309,0.0351,0.038,0.0406,0.0428,0.0449,0.0447,0.0418,0.0429,0.0447,0.0508,0.0484,0.044,0.044,0.044,0.0441,0.0441,0.0441,0.0336,0.0365,0.0396,0.0443,0.0474,0.0516,0.0537,0.0526,0.0545,0.0506,0.0516,0.0452,0.0446,0.0445,0.0444,0.0444,0.0443,0.0443,0.0443,0.0355,0.0373,0.0406,0.0477,0.0543,0.0579,0.0641,0.0635,0.0605,0.062,0.0577,0.0548,0.0542,0.0617,0.0617,0.0617,0.0618,0.0618,0.0618,0.0357,0.0392,0.0445,0.0519,0.0576,0.0651,0.0705,0.0718,0.0692,0.065,0.0637,0.0567,0.0561,0.0552,0.0622,0.0622,0.0621,0.0621,0.062,0.0377,0.0395,0.0469,0.0527,0.0655,0.0708,0.0765,0.0764,0.0772,0.0736,0.0657,0.0654,0.0632,0.0625,0.0617,0.0709,0.0709,0.0709,0,0.0384,0.04,0.0495,0.0584,0.0685,0.0744,0.0775,0.0787,0.0737,0.0716,0.0753,0.0664,0.0661,0.0635,0.0628,0.0619,0,0,0,0.04,0.0425,0.049,0.0582,0.0696,0.0746,0.0785,0.0768,0.0744,0.0739,0.0707,0.0707,0.068,0.0636,0.0595,0.0588,0.0571,0,0]}]]